Prague, Czech Republic

5:52 AM CET on March 25, 2017 (GMT +0100)
Prague

Weather History for 11518 - December, 2013

Change the Weather History Date:

Wednesday, December 25, 2013

  Actual Average Record
Temperature  
Mean Temperature 35 °F -  
Max Temperature 41 °F 33 °F - ()
Min Temperature 29 °F 23 °F - ()
Degree Days  
Heating Degree Days 30    
Moisture  
Dew Point 34 °F    
Average Humidity 94    
Maximum Humidity 100    
Minimum Humidity 80    
Precipitation  
Precipitation 0.00 in 0.03 in - ()
Sea Level Pressure  
Sea Level Pressure 29.45 in    
Wind  
Wind Speed 5 mph ()    
Max Wind Speed 11 mph    
Max Gust Speed -    
Visibility 2.3 miles    
Events Fog    
T = Trace of Precipitation, MM = Missing Value Source: Averaged Metar Reports

Daily Weather History Graph

Daily Weather History Graph

Search for Another Location

Airport or City:

Trip Planner

Search our weather history database for the weather conditions in past years. The results will help you decide how hot, cold, wet, or windy it might be!

Date:

Astronomy

Dec. 25, 2013 Rise Set
Actual Time 8:01 AM CET 4:05 PM CET
Civil Twilight 7:22 AM CET 4:43 PM CET
Nautical Twilight 6:40 AM CET 5:25 PM CET
Astronomical Twilight 6:01 AM CET 6:05 PM CET
Moon No Moon Rise 11:33 AM CET
Length of Visible Light 9h 21m
Length of Day
8h 04m
Waning Gibbous, 51% of the Moon is Illuminated
Dec 25
Waning Gibbous
Dec 25
Last Quarter
Jan 1
New
Jan 8
First Quarter
Jan 16
Full

Hourly Weather History & Observations

Time (CET) Temp. Windchill Dew Point Humidity Pressure Visibility Wind Dir Wind Speed Gust Speed Precip Events Conditions
12:00 AM 32 °F - 31 °F 92% 29.66 in 3 mi East 6.7 mph - -   Mist
12:00 AM 32.0 °F 26.4 °F 30.2 °F 93% 29.59 in 3.1 mi East 5.8 mph - N/A   Mist
12:30 AM 33.8 °F 29.6 °F 32.0 °F 93% 29.59 in 2.8 mi East 4.6 mph - N/A   Mist
1:00 AM 31 °F - 30 °F 94% 29.65 in 2 mi East 4.5 mph - - Fog Patches of Fog
1:00 AM 32.0 °F 28.7 °F 30.2 °F 93% 29.56 in 2.2 mi East 3.5 mph - N/A Fog Fog
1:30 AM 32.0 °F 27.5 °F 30.2 °F 93% 29.56 in 1.9 mi East 4.6 mph - N/A Fog Fog
1:36 AM 32.0 °F 25.6 °F 30.2 °F 93% 29.56 in 0.2 mi East 6.9 mph - N/A Fog Partly Cloudy
2:00 AM 31 °F - 30 °F 95% 29.62 in 1 mi ESE 6.7 mph - - Fog Light Fog
2:00 AM 32.0 °F 27.5 °F 30.2 °F 93% 29.53 in 0.3 mi East 4.6 mph - N/A Fog Partly Cloudy
2:15 AM 32.0 °F 28.7 °F 32.0 °F 100% 29.53 in 2.2 mi East 3.5 mph - N/A   Partly Cloudy
2:30 AM 32.0 °F 28.7 °F 30.2 °F 93% 29.53 in 2.5 mi ESE 3.5 mph - N/A   Partly Cloudy
3:00 AM 32 °F - 31 °F 97% 29.60 in 0 mi East 4.5 mph - - Fog Patches of Fog
3:00 AM 32.0 °F - 30.2 °F 93% 29.53 in 2.2 mi East 2.3 mph - N/A Fog Partly Cloudy
3:12 AM 32.0 °F - 30.2 °F 93% 29.53 in 1.2 mi Variable 1.2 mph - N/A Fog Light Freezing Fog
3:22 AM 32.0 °F - 30.2 °F 93% 29.53 in 0.4 mi Variable 1.2 mph - N/A Fog Light Freezing Fog
3:30 AM 32.0 °F - 30.2 °F 93% 29.53 in 0.4 mi Variable 1.2 mph - N/A Fog Light Freezing Fog
3:39 AM 32.0 °F 28.7 °F 30.2 °F 93% 29.50 in 0.7 mi East 3.5 mph - N/A Fog Light Freezing Fog
4:00 AM 33 °F - 32 °F 94% 29.56 in 2 mi ESE 8.9 mph - - Fog Light Fog
4:00 AM 32.0 °F 26.4 °F 32.0 °F 100% 29.50 in 2.5 mi ESE 5.8 mph - N/A Fog Mist
4:30 AM 33.8 °F 28.6 °F 33.8 °F 100% 29.47 in 3.7 mi East 5.8 mph - N/A   Unknown
5:00 AM 34 °F - 33 °F 95% 29.55 in 4 mi East 6.7 mph - -   Mist
5:00 AM 33.8 °F 30.8 °F 33.8 °F 100% 29.47 in 3.7 mi ENE 3.5 mph - N/A   Unknown
5:30 AM 33.8 °F 28.6 °F 33.8 °F 100% 29.47 in 3.1 mi East 5.8 mph - N/A   Mist
6:00 AM 33 °F - 31 °F 92% 29.54 in 3 mi East 6.7 mph - -   Mist
6:00 AM 32.0 °F 27.5 °F 32.0 °F 100% 29.47 in 3.1 mi East 4.6 mph - N/A   Mist
6:30 AM 33.8 °F - 32.0 °F 93% 29.47 in 3.1 mi Variable 2.3 mph - N/A   Mist
7:00 AM 33 °F - 32 °F 92% 29.52 in 2 mi ESE 6.7 mph - -   Mist
7:00 AM 32.0 °F 27.5 °F 32.0 °F 100% 29.44 in 2.5 mi East 4.6 mph - N/A   Mist
7:30 AM 30.2 °F - 30.2 °F 100% 29.44 in 2.8 mi Variable 1.2 mph - N/A   Mist
7:33 AM 32.0 °F - 30.2 °F 93% 29.44 in 1.9 mi Variable 1.2 mph - N/A   Mist
8:00 AM 33 °F - 32 °F 93% 29.53 in 1 mi SW 2.2 mph - -   Mist
8:00 AM 32.0 °F 28.7 °F 32.0 °F 100% 29.47 in 1.2 mi West 3.5 mph - N/A   Mist
8:07 AM 32.0 °F - 32.0 °F 100% 29.44 in 0.6 mi Calm Calm - N/A Fog Patches of Fog
8:21 AM 32.0 °F - 30.2 °F 93% 29.44 in 0.9 mi Variable 2.3 mph - N/A   Partly Cloudy
8:30 AM 32.0 °F 27.5 °F 30.2 °F 93% 29.44 in 2.2 mi ESE 4.6 mph - N/A   Partly Cloudy
8:45 AM 33.8 °F 28.6 °F 32.0 °F 93% 29.44 in 3.1 mi SE 5.8 mph - N/A   Mist
9:00 AM 34 °F - 33 °F 94% 29.51 in 3 mi SE 8.9 mph - -   Mist
9:00 AM 33.8 °F 28.6 °F 32.0 °F 93% 29.44 in 3.1 mi ESE 5.8 mph - N/A   Mist
9:30 AM 35.6 °F 31.7 °F 33.8 °F 93% 29.44 in 5.0 mi East 4.6 mph - N/A   Unknown
10:00 AM 36 °F - 35 °F 93% 29.50 in 6 mi ESE 4.5 mph - -   Mist
10:00 AM 35.6 °F 29.9 °F 33.8 °F 93% 29.44 in 5.6 mi ENE 6.9 mph - N/A   Unknown
10:30 AM 35.6 °F 28.6 °F 33.8 °F 93% 29.44 in 5.6 mi East 9.2 mph - N/A   Mist
11:00 AM 38 °F - 36 °F 91% 29.48 in 6 mi East 6.7 mph - -   Mist
11:00 AM 37.4 °F 32.1 °F 35.6 °F 93% 29.44 in 5.6 mi East 6.9 mph - N/A   Unknown
11:30 AM 39.2 °F 33.0 °F 37.4 °F 93% 29.42 in 5.6 mi East 9.2 mph - N/A   Unknown
12:00 PM 40 °F - 36 °F 82% 29.42 in 6 mi East 11.2 mph - -   Mostly Cloudy
12:00 PM 39.2 °F 33.0 °F 37.4 °F 93% 29.39 in - East 9.2 mph - N/A   Clear
12:30 PM 39.2 °F - 35.6 °F 87% 29.39 in - Variable 2.3 mph - N/A   Clear
1:00 PM 41 °F - 37 °F 80% 29.44 in 7 mi NE 2.2 mph - -   Partly Cloudy
1:00 PM 41.0 °F 39.0 °F 37.4 °F 87% 29.39 in - NE 3.5 mph - N/A   Clear
1:30 PM 41.0 °F 37.1 °F 37.4 °F 87% 29.39 in - NE 5.8 mph - N/A   Clear
2:00 PM 40 °F - 38 °F 88% 29.42 in 7 mi ENE 6.7 mph - -   Mostly Cloudy
2:00 PM 41.0 °F 35.8 °F 37.4 °F 87% 29.39 in - ENE 8.1 mph - N/A   Clear
2:30 PM 39.2 °F 35.0 °F 37.4 °F 93% 29.39 in - East 5.8 mph - N/A   Clear
3:00 PM 41 °F - 38 °F 86% 29.42 in 7 mi ENE 4.5 mph - -   Mostly Cloudy
3:00 PM 41.0 °F 39.0 °F 39.2 °F 93% 29.39 in - NE 3.5 mph - N/A   Clear
3:30 PM 41.0 °F 39.0 °F 37.4 °F 87% 29.39 in - ENE 3.5 mph - N/A   Clear
4:00 PM 40 °F - 37 °F 87% 29.41 in 6 mi East 4.5 mph - -   Mostly Cloudy
4:00 PM 41.0 °F 38.0 °F 37.4 °F 87% 29.36 in - ENE 4.6 mph - N/A   Clear
4:30 PM 39.2 °F 35.0 °F 37.4 °F 93% 29.36 in 4.3 mi NNW 5.8 mph - N/A   Unknown
4:46 PM 37.4 °F 33.8 °F 35.6 °F 93% 29.36 in 2.8 mi NNW 4.6 mph - N/A   Mist
5:00 PM 37 °F - 36 °F 94% 29.42 in 2 mi NNW 4.5 mph - -   Mist
5:00 PM 37.4 °F 33.8 °F 35.6 °F 93% 29.36 in 2.5 mi NNW 4.6 mph - N/A   Mist
5:30 PM 35.6 °F 30.7 °F 35.6 °F 100% 29.36 in 2.2 mi NNW 5.8 mph - N/A Fog Fog
6:00 PM 36 °F - 35 °F 95% 29.42 in 1 mi NNW 4.5 mph - - Fog Patches of Fog
6:00 PM 35.6 °F - 35.6 °F 100% 29.36 in 1.5 mi Variable 2.3 mph - N/A Fog Fog
6:09 PM 33.8 °F 30.8 °F 33.8 °F 100% 29.39 in 0.6 mi West 3.5 mph - N/A Fog Fog
6:19 PM 35.6 °F - 33.8 °F 93% 29.36 in 0.6 mi Variable 2.3 mph - N/A Fog Fog
6:30 PM 35.6 °F - 33.8 °F 93% 29.36 in 0.5 mi Variable 2.3 mph - N/A Fog Fog
6:37 PM 35.6 °F - 33.8 °F 93% 29.36 in 1.1 mi NNW 2.3 mph - N/A Fog Shallow Fog
7:00 PM 36 °F - 35 °F 95% 29.43 in 2 mi NW 4.5 mph - -   Mist
7:00 PM 35.6 °F 32.8 °F 35.6 °F 100% 29.39 in 1.7 mi West 3.5 mph - N/A   Mist
7:30 PM 35.6 °F 32.8 °F 35.6 °F 100% 29.39 in 1.9 mi West 3.5 mph - N/A   Mist
8:00 PM 36 °F - 35 °F 95% 29.44 in 1 mi WNW 4.5 mph - -   Mist
8:00 PM 35.6 °F - 35.6 °F 100% 29.39 in 1.2 mi Variable 2.3 mph - N/A   Mist
8:07 PM 35.6 °F 31.7 °F 33.8 °F 93% 29.36 in 0.9 mi WNW 4.6 mph - N/A Fog Patches of Fog
8:12 PM 35.6 °F 31.7 °F 33.8 °F 93% 29.36 in 0.9 mi WNW 4.6 mph - N/A Fog Patches of Fog
8:20 PM 33.8 °F 28.6 °F 33.8 °F 100% 29.39 in 0.6 mi WNW 5.8 mph - N/A   Partly Cloudy
8:30 PM 33.8 °F 28.6 °F 33.8 °F 100% 29.39 in 0.7 mi West 5.8 mph - N/A Fog Patches of Fog
8:42 PM 35.6 °F 29.2 °F 33.8 °F 93% 29.39 in 1.2 mi West 8.1 mph - N/A   Mist
8:50 PM 35.6 °F 29.2 °F 33.8 °F 93% 29.39 in 1.9 mi WSW 8.1 mph - N/A   Mist
9:00 PM 35 °F - 35 °F 97% 29.46 in 2 mi WSW 6.7 mph - -   Mist
9:00 PM 35.6 °F 29.2 °F 33.8 °F 93% 29.42 in 1.9 mi WSW 8.1 mph - N/A   Mist
9:30 PM 35.6 °F 29.9 °F 35.6 °F 100% 29.42 in 1.6 mi SW 6.9 mph - N/A   Mist
10:00 PM 35 °F - 35 °F 98% 29.47 in 2 mi SSW 4.5 mph - -   Mist
10:00 PM 35.6 °F 30.7 °F 35.6 °F 100% 29.42 in 1.7 mi SW 5.8 mph - N/A   Mist
10:19 PM 35.6 °F 31.7 °F 35.6 °F 100% 29.42 in 1.6 mi South 4.6 mph - N/A Fog Partly Cloudy
10:30 PM 35.6 °F 30.7 °F 35.6 °F 100% 29.42 in 1.6 mi SSW 5.8 mph - N/A Fog Mist
10:44 PM 35.6 °F 31.7 °F 35.6 °F 100% 29.42 in 1.6 mi South 4.6 mph - N/A   Partly Cloudy
11:00 PM 35 °F - 35 °F 99% 29.48 in 1 mi SW 6.7 mph - -   Mist
11:00 PM 35.6 °F 29.9 °F 35.6 °F 100% 29.42 in 1.6 mi SSW 6.9 mph - N/A   Partly Cloudy
11:11 PM 35.6 °F 30.7 °F 35.6 °F 100% 29.42 in 0.5 mi WSW 5.8 mph - N/A   Scattered Clouds
11:19 PM 35.6 °F 29.9 °F 33.8 °F 93% 29.42 in 0.4 mi SW 6.9 mph - N/A   Scattered Clouds
11:30 PM 35.6 °F 29.9 °F 33.8 °F 93% 29.42 in 0.4 mi SW 6.9 mph - N/A   Scattered Clouds
11:40 PM 33.8 °F 29.6 °F 33.8 °F 100% 29.42 in 0.3 mi SW 4.6 mph - N/A Fog Fog
11:51 PM 35.6 °F 30.7 °F 33.8 °F 93% 29.42 in 0.3 mi WSW 5.8 mph - N/A Fog Fog